Location: Arcizac
(43.0933°N, 0.0112°E)
Time: 05:24:10
(UTC+00:00)

Cosmos 2297 - Pass Details

Date: 14 December 2019
Orbit: 836 x 858 km, 71.0° (Epoch: 24 January)

Event Time Altitude Azimuth Distance (km) Brightness Sun altitude
Rises 17:14:54 0° 337° (NNW) 3,426 6.9 -8.8°
Reaches altitude 10° 17:17:24 10° 340° (NNW) 2,483 6.1 -9.3°
Maximum altitude 17:23:05 67° 63° (ENE) 913 3.7 -10.2°
Drops below altitude 10° 17:28:41 10° 146° (SSE) 2,453 6.0 -11.2°
Sets 17:31:07 0° 149° (SSE) 3,381 6.7 -11.6°
